GW1317 Weather Reports


time (UTC)temp
C
wind
direction
speed
KPH
gust
KPH
rain 1hr
cm
rain 24hr
cm
rain mn
cm
humidity
%
barometer
mb
20221203061544 7 0 0.0 4.8 0.00 0.00 0.00 80 1008.8
20221203061039 7 302 1.6 6.4 0.00 0.00 0.00 79 1008.9
20221203060533 7 302 1.6 6.4 0.00 0.00 0.00 79 1008.9
20221203060045 7 313 1.6 8.0 0.00 0.00 0.00 78 1008.8
20221203055533 7 306 3.2 8.0 0.00 0.00 0.00 78 1008.8
20221203055033 7 323 3.2 8.0 0.00 0.00 0.00 77 1008.7
20221203054538 7 336 1.6 4.8 0.00 0.00 0.00 77 1008.6
20221203054033 7 336 3.2 4.8 0.00 0.00 0.00 77 1008.6
20221203053533 7 336 0.0 6.4 0.00 0.00 0.00 77 1008.6
20221203053040 7 340 1.6 6.4 0.00 0.00 0.00 77 1008.5
20221203052535 8 340 1.6 6.4 0.00 0.00 0.00 76 1008.5
20221203052033 8 327 1.6 9.7 0.00 0.00 0.00 76 1008.4
20221203051547 8 329 3.2 9.7 0.00 0.00 0.00 76 1008.5
20221203051034 8 355 3.2 8.0 0.00 0.00 0.00 76 1008.5
20221203050533 8 329 1.6 8.0 0.00 0.00 0.00 76 1008.6
20221203050049 8 331 1.6 8.0 0.00 0.00 0.00 75 1008.7
20221203045533 8 316 3.2 9.7 0.00 0.00 0.00 75 1008.8
20221203045034 8 332 1.6 9.7 0.00 0.00 0.00 75 1008.7
20221203044536 8 347 3.2 9.7 0.00 0.00 0.00 75 1008.8
20221203044032 8 336 3.2 9.7 0.00 0.00 0.00 75 1008.7
20221203043532 8 5 4.8 9.7 0.00 0.00 0.00 75 1008.8
20221203043042 8 333 4.8 9.7 0.00 0.00 0.00 76 1008.8
20221203042532 8 336 4.8 9.7 0.00 0.00 0.00 76 1008.9
20221203042033 8 329 3.2 8.0 0.00 0.00 0.00 76 1008.9
20221203041540 8 343 3.2 8.0 0.00 0.00 0.00 76 1008.8
20221203041034 7 355 3.2 8.0 0.00 0.00 0.00 76 1009.0
20221203040533 7 344 3.2 9.7 0.00 0.00 0.00 77 1008.9
20221203040045 8 332 4.8 9.7 0.00 0.00 0.00 76 1008.9
20221203035533 8 321 4.8 14.5 0.00 0.00 0.00 76 1008.9
20221203035033 8 348 4.8 14.5 0.00 0.00 0.00 75 1008.9
20221203034548 7 318 8.0 12.9 0.00 0.00 0.00 76 1008.9
20221203034035 7 333 4.8 12.9 0.00 0.00 0.00 76 1009.0
20221203033533 7 355 4.8 14.5 0.00 0.00 0.00 75 1009.0
20221203033042 8 337 6.4 16.1 0.00 0.00 0.00 75 1009.0
20221203032532 7 326 6.4 16.1 0.00 0.00 0.00 75 1009.1
20221203032036 7 294 8.0 16.1 0.00 0.00 0.00 76 1009.1
20221203031538 7 331 6.4 14.5 0.00 0.00 0.00 77 1009.1
20221203031032 7 324 4.8 8.0 0.00 0.00 0.00 78 1009.1
20221203030532 7 337 3.2 9.7 0.00 0.00 0.00 78 1009.2
20221203030055 7 329 3.2 14.5 0.00 0.00 0.00 78 1009.3
20221203025533 7 355 6.4 14.5 0.00 0.00 0.00 78 1009.3
20221203025033 7 355 4.8 12.9 0.00 0.00 0.00 78 1009.3
20221203024549 7 350 4.8 12.9 0.00 0.00 0.00 79 1009.3
20221203024035 7 329 4.8 12.9 0.00 0.00 0.00 79 1009.4
20221203023533 7 327 6.4 14.5 0.00 0.00 0.00 79 1009.5
20221203023052 7 332 4.8 14.5 0.00 0.00 0.00 79 1009.5
20221203022533 7 319 4.8 12.9 0.00 0.00 0.00 80 1009.5
20221203022033 7 336 6.4 12.9 0.00 0.00 0.00 80 1009.6
20221203021556 7 342 6.4 12.9 0.00 0.00 0.00 79 1009.7
20221203021032 7 316 4.8 12.9 0.00 0.00 0.00 79 1009.8
20221203020535 7 331 4.8 11.3 0.00 0.00 0.00 79 1009.8
20221203020052 7 321 4.8 12.9 0.00 0.00 0.00 79 1009.8
20221203015533 7 313 3.2 12.9 0.00 0.00 0.00 79 1009.8
20221203015033 7 312 4.8 12.9 0.00 0.00 0.00 79 1009.8
20221203014548 7 345 4.8 9.7 0.00 0.00 0.00 79 1009.9
20221203014032 7 340 3.2 12.9 0.00 0.00 0.00 79 1009.9
20221203013532 7 348 4.8 12.9 0.00 0.00 0.00 79 1010.0
20221203013048 7 355 4.8 12.9 0.00 0.00 0.00 78 1010.0
20221203012533 7 318 3.2 12.9 0.00 0.00 0.00 78 1010.0
20221203012035 7 343 4.8 14.5 0.00 0.00 0.00 78 1010.1
20221203011556 7 321 6.4 14.5 0.00 0.00 0.00 78 1010.1
20221203011032 7 325 4.8 12.9 0.00 0.00 0.00 78 1010.2
20221203010533 7 340 4.8 12.9 0.00 0.00 0.00 78 1010.2
20221203010047 7 341 4.8 12.9 0.00 0.00 0.00 78 1010.2
20221203005533 7 307 6.4 12.9 0.00 0.00 0.00 78 1010.3
20221203005033 7 298 4.8 12.9 0.00 0.00 0.00 78 1010.3
20221203004548 7 342 6.4 14.5 0.00 0.00 0.00 78 1010.3
20221203004033 7 347 6.4 14.5 0.00 0.00 0.00 78 1010.3
20221203003533 7 319 6.4 16.1 0.00 0.00 0.00 78 1010.3
20221203003048 7 9 8.0 17.7 0.00 0.00 0.00 78 1010.4
20221203002533 7 326 6.4 17.7 0.00 0.00 0.00 78 1010.4
20221203002033 7 22 8.0 17.7 0.00 0.00 0.00 78 1010.4
20221203001556 8 338 8.0 17.7 0.00 0.00 0.00 78 1010.4
20221203001035 8 340 8.0 17.7 0.00 0.00 0.00 77 1010.6
20221203000533 8 321 6.4 14.5 0.00 0.00 0.00 77 1010.6
20221203000043 8 360 6.4 14.5 0.00 0.00 0.00 77 1010.6
20221202235533 8 329 4.8 11.3 0.00 0.00 0.00 78 1010.7
20221202235033 8 309 3.2 11.3 0.00 0.00 0.00 77 1010.8
20221202234539 8 323 4.8 11.3 0.00 0.00 0.00 77 1010.8
20221202234033 8 331 3.2 9.7 0.00 0.00 0.00 77 1010.9
20221202233532 8 331 3.2 12.9 0.00 0.00 0.00 77 1010.9
20221202233038 8 306 4.8 12.9 0.00 0.00 0.00 77 1010.8
20221202232533 8 322 3.2 14.5 0.00 0.00 0.00 77 1011.0
20221202232033 8 15 3.2 14.5 0.00 0.00 0.00 77 1011.0
20221202231556 8 360 4.8 12.9 0.00 0.00 0.00 77 1011.0
20221202231030 8 336 4.8 8.0 0.00 0.00 0.00 77 1011.2
20221202230533 8 338 3.2 9.7 0.00 0.00 0.00 77 1011.2
20221202230057 8 335 3.2 11.3 0.00 0.00 0.00 77 1011.2
20221202225532 8 332 4.8 12.9 0.00 0.03 0.00 78 1011.3
20221202225031 8 347 4.8 12.9 0.00 0.03 0.00 78 1011.2
20221202224540 8 338 4.8 12.9 0.00 0.03 0.00 79 1011.2
20221202224036 8 355 4.8 12.9 0.00 0.03 0.00 79 1011.2
20221202223533 8 32 3.2 12.9 0.00 0.03 0.00 79 1011.2
20221202223047 8 5 4.8 9.7 0.00 0.03 0.00 78 1011.2
20221202222533 8 306 3.2 9.7 0.00 0.03 0.00 78 1011.3
20221202222032 8 327 4.8 9.7 0.00 0.03 0.00 77 1011.3
20221202221541 9 345 4.8 8.0 0.00 0.03 0.00 76 1011.3
20221202221032 9 321 3.2 8.0 0.00 0.03 0.00 75 1011.4
20221202220532 9 335 3.2 9.7 0.00 0.03 0.00 75 1011.4
20221202220038 9 336 3.2 9.7 0.00 0.03 0.00 74 1011.4
20221202215534 9 315 3.2 8.0 0.00 0.08 0.00 74 1011.4
20221202215034 10 323 3.2 9.7 0.00 0.08 0.00 73 1011.4
20221202214543 10 342 3.2 12.9 0.00 0.08 0.00 73 1011.4
20221202214032 10 337 4.8 12.9 0.00 0.08 0.00 73 1011.3
20221202213532 10 322 3.2 12.9 0.00 0.08 0.00 72 1011.3
20221202213051 10 323 4.8 9.7 0.00 0.08 0.00 71 1011.3
20221202212533 10 355 4.8 8.0 0.00 0.08 0.00 70 1011.4
20221202212032 11 326 4.8 8.0 0.00 0.08 0.00 68 1011.4
20221202211544 11 352 1.6 8.0 0.00 0.08 0.00 66 1011.4
20221202211032 11 0 3.2 8.0 0.00 0.08 0.00 65 1011.3
20221202210533 11 48 1.6 6.4 0.00 0.08 0.00 66 1011.3
20221202210045 11 0 0.0 9.7 0.00 0.08 0.00 66 1011.3
20221202205534 11 64 3.2 14.5 0.00 0.08 0.00 66 1011.3
20221202205031 11 39 1.6 14.5 0.00 0.08 0.00 66 1011.2
20221202204548 11 78 3.2 14.5 0.00 0.08 0.00 66 1011.1
20221202204029 11 49 1.6 8.0 0.00 0.08 0.00 67 1011.2
20221202203528 11 76 3.2 8.0 0.00 0.08 0.00 68 1011.2
20221202203039 11 65 1.6 8.0 0.00 0.08 0.00 68 1011.2
20221202202532 11 61 1.6 8.0 0.00 0.08 0.00 69 1011.2
20221202202031 11 60 3.2 8.0 0.00 0.08 0.00 69 1011.2
20221202201551 11 78 0.0 8.0 0.00 0.08 0.00 69 1011.2
20221202201031 11 74 1.6 8.0 0.00 0.08 0.00 69 1011.2
20221202200529 11 84 1.6 6.4 0.00 0.08 0.00 69 1011.3
20221202200042 11 94 1.6 9.7 0.00 0.08 0.00 69 1011.3
20221202195531 11 39 1.6 11.3 0.00 0.08 0.00 70 1011.3
20221202195030 11 83 3.2 11.3 0.00 0.08 0.00 70 1011.3
20221202194538 11 30 3.2 9.7 0.00 0.08 0.00 70 1011.3
20221202194033 11 69 3.2 11.3 0.00 0.08 0.00 71 1011.4
20221202193530 11 23 1.6 11.3 0.00 0.08 0.00 71 1011.4
20221202193041 11 49 3.2 11.3 0.00 0.08 0.00 71 1011.5
20221202192530 11 33 1.6 6.4 0.00 0.08 0.00 71 1011.4
20221202192033 11 0 1.6 6.4 0.00 0.08 0.00 71 1011.4
20221202191552 11 71 1.6 6.4 0.00 0.08 0.00 71 1011.5
20221202191032 11 60 3.2 6.4 0.00 0.08 0.00 71 1011.5
20221202190532 11 66 1.6 6.4 0.00 0.08 0.00 71 1011.5
20221202190043 11 63 0.0 8.0 0.00 0.08 0.00 71 1011.6
20221202185532 11 78 1.6 8.0 0.00 0.08 0.00 71 1011.6
20221202185032 11 38 3.2 9.7 0.00 0.08 0.00 71 1011.6
20221202184537 11 0 1.6 11.3 0.00 0.08 0.00 71 1011.6
20221202184031 11 74 1.6 12.9 0.00 0.08 0.00 71 1011.5
20221202183529 11 105 3.2 12.9 0.00 0.08 0.00 71 1011.6
20221202183041 11 91 3.2 9.7 0.00 0.08 0.00 71 1011.5
20221202182530 11 64 3.2 9.7 0.00 0.08 0.00 71 1011.6
20221202182030 12 71 1.6 9.7 0.00 0.08 0.00 70 1011.4
20221202181544 12 71 1.6 12.9 0.00 0.08 0.00 70 1011.5
20221202181030 12 77 1.6 12.9 0.00 0.08 0.00 70 1011.5
20221202180529 12 128 1.6 12.9 0.00 0.08 0.00 70 1011.4
20221202180040 12 65 3.2 9.7 0.00 0.08 0.00 70 1011.5
20221202175532 12 82 3.2 14.5 0.00 0.08 0.00 70 1011.4
20221202175127 12 109 1.6 14.5 0.00 0.08 0.00 71 1011.4
20221202174540 12 135 3.2 14.5 0.00 0.08 0.00 71 1011.5
20221202174027 12 85 3.2 11.3 0.00 0.08 0.00 71 1011.5
20221202173530 12 107 4.8 11.3 0.00 0.08 0.00 70 1011.5
20221202173043 12 93 1.6 12.9 0.00 0.08 0.00 70 1011.6
20221202172529 12 113 3.2 12.9 0.00 0.08 0.00 70 1011.6
20221202172029 12 88 3.2 11.3 0.00 0.08 0.00 69 1011.5
20221202171534 12 91 3.2 11.3 0.00 0.08 0.00 69 1011.5
20221202171029 12 74 3.2 11.3 0.00 0.08 0.00 68 1011.5
20221202170529 12 119 3.2 17.7 0.00 0.08 0.00 68 1011.5
20221202170041 12 63 4.8 17.7 0.00 0.08 0.00 67 1011.5
20221202165531 12 117 1.6 11.3 0.00 0.08 0.00 67 1011.5
20221202165034 12 86 4.8 16.1 0.00 0.08 0.00 66 1011.6
20221202164538 12 138 4.8 16.1 0.00 0.08 0.00 66 1011.5
20221202164028 13 165 6.4 19.3 0.00 0.08 0.00 66 1011.5
20221202163528 13 323 4.8 19.3 0.00 0.08 0.00 65 1011.5
20221202163051 13 150 3.2 12.9 0.00 0.08 0.00 65 1011.5
20221202162530 13 82 4.8 12.9 0.00 0.08 0.00 65 1011.4
20221202162030 13 84 3.2 14.5 0.00 0.08 0.00 65 1011.4
20221202161545 13 79 4.8 14.5 0.00 0.08 0.00 64 1011.3
20221202161033 13 149 3.2 14.5 0.00 0.08 0.00 63 1011.4
20221202160530 13 92 8.0 19.3 0.00 0.08 0.00 62 1011.4
20221202160044 13 119 8.0 19.3 0.00 0.08 0.00 61 1011.3
20221202155530 13 105 4.8 16.1 0.00 0.08 0.00 61 1011.4
20221202155030 13 64 3.2 16.1 0.00 0.08 0.00 61 1011.3
20221202154544 13 14 4.8 16.1 0.00 0.08 0.00 60 1011.3
20221202154033 14 103 4.8 16.1 0.00 0.08 0.00 60 1011.2
20221202153532 14 77 3.2 9.7 0.00 0.08 0.00 60 1011.2
20221202153045 14 86 3.2 12.9 0.00 0.08 0.00 60 1011.2
20221202152529 13 56 6.4 12.9 0.00 0.08 0.00 60 1011.2
20221202152031 13 92 3.2 12.9 0.00 0.08 0.00 61 1011.2
20221202151537 13 123 3.2 12.9 0.00 0.08 0.00 61 1011.2
20221202151029 13 116 3.2 11.3 0.00 0.08 0.00 61 1011.2
20221202150533 13 126 4.8 12.9 0.00 0.08 0.00 61 1011.1
20221202150047 13 70 3.2 16.1 0.00 0.08 0.00 61 1011.2
20221202145530 13 78 4.8 20.9 0.00 0.08 0.00 61 1011.2
20221202145029 13 77 4.8 20.9 0.00 0.08 0.00 61 1011.2
20221202144545 13 82 4.8 17.7 0.00 0.08 0.00 60 1011.2
20221202144029 14 51 4.8 17.7 0.00 0.08 0.00 60 1011.2
20221202143530 14 92 6.4 14.5 0.00 0.08 0.00 59 1011.1
20221202143039 14 113 4.8 14.5 0.00 0.08 0.00 59 1011.3
20221202142529 14 76 6.4 14.5 0.00 0.08 0.00 59 1011.3
20221202142030 14 88 4.8 14.5 0.00 0.08 0.00 59 1011.4
20221202141546 14 115 3.2 17.7 0.00 0.08 0.00 58 1011.4
20221202141031 14 119 6.4 17.7 0.00 0.08 0.00 58 1011.4
20221202140529 14 100 4.8 16.1 0.00 0.08 0.00 58 1011.5
20221202140057 14 61 4.8 16.1 0.00 0.08 0.00 58 1011.5
20221202135530 14 88 4.8 20.9 0.00 0.08 0.00 57 1011.6
20221202135029 14 92 4.8 20.9 0.00 0.08 0.00 57 1011.6
20221202134545 14 128 11.3 20.9 0.00 0.08 0.00 56 1011.6
20221202134030 15 124 6.4 19.3 0.00 0.08 0.00 56 1011.7
20221202133529 15 97 4.8 19.3 0.00 0.08 0.00 56 1011.8
20221202133049 15 141 6.4 19.3 0.00 0.08 0.00 55 1011.8
20221202132529 15 100 4.8 24.1 0.00 0.08 0.00 56 1011.8
20221202132029 15 161 4.8 24.1 0.00 0.08 0.00 56 1011.8
20221202131554 14 55 11.3 24.1 0.00 0.08 0.00 56 1011.8
20221202131029 15 40 8.0 22.5 0.00 0.08 0.00 56 1011.8
20221202130529 14 45 9.7 27.4 0.00 0.08 0.00 57 1012.0
20221202130045 14 312 11.3 27.4 0.00 0.08 0.00 58 1012.1
20221202125530 14 109 9.7 20.9 0.00 0.08 0.00 58 1012.2
20221202125029 14 42 6.4 22.5 0.00 0.08 0.00 58 1012.3
20221202124538 14 70 8.0 22.5 0.00 0.08 0.00 58 1012.3
20221202124030 14 57 6.4 17.7 0.00 0.08 0.00 58 1012.4
20221202123532 14 69 8.0 17.7 0.00 0.08 0.00 58 1012.4
20221202123047 14 75 6.4 17.7 0.00 0.08 0.00 57 1012.5
20221202122528 14 24 6.4 22.5 0.00 0.08 0.00 57 1012.6
20221202122030 15 109 6.4 22.5 0.00 0.08 0.00 57 1012.7
20221202121552 15 11 4.8 17.7 0.00 0.08 0.00 58 1012.5
20221202121029 14 180 6.4 20.9 0.00 0.08 0.00 60 1012.7
20221202120530 14 5 8.0 20.9 0.00 0.08 0.00 59 1012.8
20221202120038 13 94 6.4 19.3 0.00 0.08 0.00 58 1012.9
20221202115530 13 102 6.4 16.1 0.00 0.08 0.00 61 1013.0
20221202115031 13 15 4.8 17.7 0.00 0.08 0.00 61 1013.1
20221202114541 13 111 6.4 19.3 0.00 0.08 0.00 62 1013.3
20221202114030 13 53 6.4 24.1 0.00 0.08 0.00 61 1013.4
20221202113535 13 58 8.0 24.1 0.00 0.08 0.00 61 1013.4
20221202113044 13 114 8.0 25.7 0.00 0.08 0.00 62 1013.5
20221202112532 13 112 6.4 25.7 0.00 0.08 0.00 62 1013.6
20221202112030 13 73 9.7 24.1 0.00 0.08 0.00 61 1013.7
20221202111542 13 105 8.0 24.1 0.00 0.08 0.00 61 1013.6
20221202111029 13 72 4.8 17.7 0.00 0.08 0.00 62 1013.8
20221202110528 13 46 6.4 19.3 0.00 0.08 0.00 62 1013.8
20221202110043 12 119 9.7 19.3 0.00 0.08 0.00 62 1014.0
20221202105531 13 85 4.8 19.3 0.00 0.08 0.00 63 1014.0
20221202105029 13 84 6.4 16.1 0.00 0.08 0.00 62 1014.1
20221202104540 13 79 3.2 19.3 0.00 0.08 0.00 63 1014.1
20221202104030 12 123 3.2 19.3 0.00 0.08 0.00 63 1014.2
20221202103530 12 49 6.4 19.3 0.00 0.08 0.00 63 1014.3
20221202103041 12 87 6.4 14.5 0.00 0.08 0.00 64 1014.4
20221202102529 12 121 3.2 12.9 0.00 0.08 0.00 64 1014.4
20221202102030 12 35 3.2 14.5 0.00 0.08 0.00 64 1014.4
20221202101540 12 103 4.8 16.1 0.00 0.08 0.00 64 1014.4
20221202101032 12 120 4.8 16.1 0.00 0.08 0.00 64 1014.5
20221202100529 12 84 3.2 16.1 0.00 0.08 0.00 65 1014.5
20221202100051 12 59 3.2 17.7 0.00 0.08 0.00 65 1014.5
20221202095532 12 53 6.4 17.7 0.00 0.08 0.00 65 1014.5
20221202095031 12 355 4.8 14.5 0.00 0.08 0.00 63 1014.5
20221202094544 12 90 3.2 12.9 0.00 0.08 0.00 66 1014.5
20221202094030 12 22 3.2 16.1 0.00 0.08 0.00 66 1014.4
20221202093530 12 48 3.2 16.1 0.00 0.08 0.00 66 1014.3
20221202093043 11 63 3.2 8.0 0.00 0.08 0.00 66 1014.3
20221202092529 11 315 1.6 14.5 0.00 0.08 0.00 67 1014.3
20221202092030 11 94 4.8 14.5 0.00 0.08 0.00 67 1014.3
20221202091546 11 26 3.2 14.5 0.00 0.08 0.00 67 1014.3
20221202091030 11 37 4.8 16.1 0.00 0.08 0.00 67 1014.2
20221202090532 11 76 4.8 19.3 0.00 0.08 0.00 67 1014.1
20221202090040 11 112 3.2 19.3 0.00 0.08 0.00 68 1014.1
20221202085529 11 55 4.8 17.7 0.00 0.08 0.00 68 1014.1
20221202085029 11 40 4.8 17.7 0.00 0.08 0.00 69 1014.2
20221202084536 11 0 3.2 11.3 0.00 0.08 0.00 69 1014.2
20221202084032 11 11 3.2 14.5 0.00 0.08 0.00 69 1014.3
20221202083530 11 58 3.2 16.1 0.00 0.08 0.00 70 1014.3
20221202083039 11 63 6.4 16.1 0.00 0.08 0.00 70 1014.2
20221202082532 11 46 4.8 20.9 0.00 0.08 0.00 70 1014.2
20221202082032 11 43 4.8 20.9 0.00 0.08 0.00 70 1014.2
20221202081542 11 11 3.2 16.1 0.00 0.08 0.00 70 1014.4
20221202081029 11 13 6.4 17.7 0.00 0.08 0.00 70 1014.2
20221202080529 11 53 6.4 17.7 0.00 0.08 0.00 71 1014.3
20221202080044 11 14 4.8 19.3 0.00 0.08 0.00 71 1014.2
20221202075530 11 92 4.8 19.3 0.00 0.08 0.00 71 1014.2
20221202075030 11 66 6.4 17.7 0.00 0.08 0.00 71 1014.3
20221202074535 11 109 4.8 14.5 0.00 0.08 0.00 71 1014.2
20221202074029 11 80 4.8 12.9 0.00 0.08 0.00 71 1014.1
20221202073532 11 69 1.6 14.5 0.00 0.08 0.00 72 1014.0
20221202073038 11 169 4.8 17.7 0.00 0.08 0.00 72 1014.0
20221202072530 11 92 4.8 17.7 0.00 0.08 0.00 72 1014.1
20221202072031 11 171 4.8 17.7 0.00 0.08 0.00 72 1014.0
20221202071539 11 59 4.8 16.1 0.00 0.08 0.00 72 1014.1
20221202071033 11 32 4.8 16.1 0.00 0.08 0.00 72 1014.1
20221202070531 11 57 4.8 14.5 0.00 0.08 0.00 72 1014.0
20221202070052 11 32 4.8 12.9 0.00 0.08 0.00 72 1014.0
20221202065531 11 55 3.2 14.5 0.00 0.08 0.00 72 1014.0
20221202065030 11 65 1.6 16.1 0.00 0.08 0.00 72 1014.0
20221202064539 11 14 4.8 16.1 0.00 0.08 0.00 72 1014.0
20221202064029 11 49 1.6 11.3 0.00 0.08 0.00 73 1014.1
20221202063529 11 0 1.6 14.5 0.00 0.08 0.00 73 1014.0
20221202063037 11 147 3.2 14.5 0.00 0.08 0.00 74 1014.0
20221202062532 11 78 0.0 14.5 0.00 0.08 0.00 74 1014.0
20221202062033 11 82 1.6 14.5 0.00 0.08 0.00 74 1014.1